Year,Month,Day,Hour,Minute,Value (Times are PST for windgust in km/hr)
2019,06,17,00,00,1.60
2019,06,17,00,01,3.20
2019,06,17,00,02,1.60
2019,06,17,00,03,1.60
2019,06,17,00,04,1.60
2019,06,17,00,05,1.60
2019,06,17,00,06,3.20
2019,06,17,00,07,1.60
2019,06,17,00,08,1.60
2019,06,17,00,09,3.20
2019,06,17,00,10,3.20
2019,06,17,00,11,3.20
2019,06,17,00,12,3.20
2019,06,17,00,13,3.20
2019,06,17,00,14,3.20
2019,06,17,00,15,3.20
2019,06,17,00,16,3.20
2019,06,17,00,17,3.20
2019,06,17,00,18,3.20
2019,06,17,00,19,3.20
2019,06,17,00,20,1.60
2019,06,17,00,21,3.20
2019,06,17,00,22,3.20
2019,06,17,00,23,1.60
2019,06,17,00,24,1.60
2019,06,17,00,30,1.60
2019,06,17,00,31,1.60
2019,06,17,00,33,1.60
2019,06,17,00,34,3.20
2019,06,17,00,35,3.20
2019,06,17,00,36,3.20
2019,06,17,00,37,3.20
2019,06,17,00,38,1.60
2019,06,17,00,39,1.60
2019,06,17,00,40,3.20
2019,06,17,00,41,4.80
2019,06,17,00,42,3.20
2019,06,17,00,43,3.20
2019,06,17,00,44,4.80
2019,06,17,00,45,3.20
2019,06,17,00,46,3.20
2019,06,17,00,47,3.20
2019,06,17,00,48,4.80
2019,06,17,00,49,3.20
2019,06,17,00,50,4.80
2019,06,17,00,51,4.80
2019,06,17,00,52,4.80
2019,06,17,00,53,3.20
2019,06,17,00,54,3.20
2019,06,17,00,55,3.20
2019,06,17,00,56,3.20
2019,06,17,00,57,3.20
2019,06,17,00,58,3.20
2019,06,17,01,01,1.60
2019,06,17,01,02,1.60
2019,06,17,01,05,1.60
2019,06,17,01,06,1.60
2019,06,17,01,07,1.60
2019,06,17,01,08,1.60
2019,06,17,01,09,3.20
2019,06,17,01,10,3.20
2019,06,17,01,11,1.60
2019,06,17,01,12,1.60
2019,06,17,01,13,3.20
2019,06,17,01,14,3.20
2019,06,17,01,15,3.20
2019,06,17,01,16,3.20
2019,06,17,01,17,3.20
2019,06,17,01,18,3.20
2019,06,17,01,19,3.20
2019,06,17,01,20,3.20
2019,06,17,01,21,6.40
2019,06,17,01,22,6.40
2019,06,17,01,23,4.80
2019,06,17,01,24,6.40
2019,06,17,01,25,4.80
2019,06,17,01,26,4.80
2019,06,17,01,27,6.40
2019,06,17,01,28,4.80
2019,06,17,01,29,4.80
2019,06,17,01,30,3.20
2019,06,17,01,31,3.20
2019,06,17,01,32,3.20
2019,06,17,01,33,4.80
2019,06,17,01,34,1.60
2019,06,17,01,35,3.20
2019,06,17,01,36,3.20
2019,06,17,01,37,3.20
2019,06,17,01,38,3.20
2019,06,17,01,39,1.60
2019,06,17,01,40,1.60
2019,06,17,01,41,1.60
2019,06,17,01,44,1.60
2019,06,17,01,45,3.20
2019,06,17,01,46,1.60
2019,06,17,01,47,3.20
2019,06,17,01,48,1.60
2019,06,17,01,49,3.20
2019,06,17,01,50,3.20
2019,06,17,01,51,3.20
2019,06,17,01,52,3.20
2019,06,17,01,53,1.60
2019,06,17,01,55,1.60
2019,06,17,01,56,1.60
2019,06,17,01,57,1.60
2019,06,17,01,58,1.60
2019,06,17,02,01,3.20
2019,06,17,02,02,9.60
2019,06,17,02,03,9.60
2019,06,17,02,04,4.80
2019,06,17,02,05,4.80
2019,06,17,02,06,4.80
2019,06,17,02,07,3.20
2019,06,17,02,08,4.80
2019,06,17,02,09,4.80
2019,06,17,02,10,6.40
2019,06,17,02,11,8.10
2019,06,17,02,12,4.80
2019,06,17,02,13,3.20
2019,06,17,02,14,3.20
2019,06,17,02,15,4.80
2019,06,17,02,16,6.40
2019,06,17,02,17,6.40
2019,06,17,02,18,4.80
2019,06,17,02,19,4.80
2019,06,17,02,20,3.20
2019,06,17,02,21,4.80
2019,06,17,02,22,4.80
2019,06,17,02,23,6.40
2019,06,17,02,24,6.40
2019,06,17,02,25,4.80
2019,06,17,02,26,4.80
2019,06,17,02,27,3.20
2019,06,17,02,28,3.20
2019,06,17,02,29,1.60
2019,06,17,02,30,3.20
2019,06,17,02,31,3.20
2019,06,17,02,32,3.20
2019,06,17,02,33,3.20
2019,06,17,02,34,3.20
2019,06,17,02,35,4.80
2019,06,17,02,36,4.80
2019,06,17,02,37,3.20
2019,06,17,02,38,3.20
2019,06,17,02,39,4.80
2019,06,17,02,40,3.20
2019,06,17,02,41,3.20
2019,06,17,02,42,3.20
2019,06,17,02,43,3.20
2019,06,17,02,44,3.20
2019,06,17,02,45,3.20
2019,06,17,02,46,3.20
2019,06,17,02,47,3.20
2019,06,17,02,48,3.20
2019,06,17,02,49,3.20
2019,06,17,02,50,3.20
2019,06,17,02,51,3.20
2019,06,17,02,52,3.20
2019,06,17,02,53,3.20
2019,06,17,02,54,3.20
2019,06,17,02,55,3.20
2019,06,17,02,56,3.20
2019,06,17,02,57,3.20
2019,06,17,02,58,3.20
2019,06,17,02,59,3.20
2019,06,17,03,00,3.20
2019,06,17,03,01,3.20
2019,06,17,03,02,4.80
2019,06,17,03,03,4.80
2019,06,17,03,04,3.20
2019,06,17,03,05,3.20
2019,06,17,03,06,3.20
2019,06,17,03,07,3.20
2019,06,17,03,08,3.20
2019,06,17,03,09,3.20
2019,06,17,03,10,3.20
2019,06,17,03,11,3.20
2019,06,17,03,12,3.20
2019,06,17,03,13,3.20
2019,06,17,03,14,3.20
2019,06,17,03,15,4.80
2019,06,17,03,16,3.20
2019,06,17,03,17,3.20
2019,06,17,03,18,3.20
2019,06,17,03,19,3.20
2019,06,17,03,20,4.80
2019,06,17,03,21,3.20
2019,06,17,03,22,3.20
2019,06,17,03,23,4.80
2019,06,17,03,24,3.20
2019,06,17,03,25,3.20
2019,06,17,03,26,3.20
2019,06,17,03,27,3.20
2019,06,17,03,28,3.20
2019,06,17,03,29,3.20
2019,06,17,03,30,1.60
2019,06,17,04,00,3.20
2019,06,17,04,01,3.20
2019,06,17,04,02,3.20
2019,06,17,04,03,4.80
2019,06,17,04,04,3.20
2019,06,17,04,05,3.20
2019,06,17,04,06,3.20
2019,06,17,04,07,3.20
2019,06,17,04,08,3.20
2019,06,17,04,09,3.20
2019,06,17,04,10,3.20
2019,06,17,04,11,4.80
2019,06,17,04,12,3.20
2019,06,17,04,13,1.60
2019,06,17,04,14,3.20
2019,06,17,04,15,3.20
2019,06,17,04,16,3.20
2019,06,17,04,17,3.20
2019,06,17,04,18,3.20
2019,06,17,04,19,3.20
2019,06,17,04,20,4.80
2019,06,17,04,21,1.60
2019,06,17,04,22,1.60
2019,06,17,04,23,3.20
2019,06,17,04,24,3.20
2019,06,17,04,25,3.20
2019,06,17,04,26,4.80
2019,06,17,04,27,3.20
2019,06,17,04,28,4.80
2019,06,17,04,29,4.80
2019,06,17,04,30,4.80
2019,06,17,04,31,3.20
2019,06,17,04,32,3.20
2019,06,17,04,33,3.20
2019,06,17,04,34,3.20
2019,06,17,04,35,3.20
2019,06,17,04,36,1.60
2019,06,17,04,37,1.60
2019,06,17,04,38,1.60
2019,06,17,04,39,3.20
2019,06,17,04,40,1.60
2019,06,17,04,41,1.60
2019,06,17,04,42,3.20
2019,06,17,04,43,1.60
2019,06,17,04,44,1.60
2019,06,17,04,45,1.60
2019,06,17,04,46,1.60
2019,06,17,04,47,1.60
2019,06,17,04,48,1.60
2019,06,17,05,11,3.20
2019,06,17,05,12,3.20
2019,06,17,05,13,3.20
2019,06,17,05,14,3.20
2019,06,17,05,15,1.60
2019,06,17,05,16,3.20
2019,06,17,05,17,1.60
2019,06,17,07,30,1.60
2019,06,17,07,41,4.80
2019,06,17,07,42,4.80
2019,06,17,07,43,3.20
2019,06,17,07,44,3.20
2019,06,17,07,45,3.20
2019,06,17,07,46,1.60
2019,06,17,07,47,1.60
2019,06,17,07,48,1.60
2019,06,17,07,49,1.60
2019,06,17,07,52,1.60
2019,06,17,07,53,3.20
2019,06,17,07,54,3.20
2019,06,17,07,55,3.20
2019,06,17,07,56,4.80
2019,06,17,07,57,4.80
2019,06,17,07,58,4.80
2019,06,17,07,59,4.80
2019,06,17,08,00,6.40
2019,06,17,08,01,6.40
2019,06,17,08,02,4.80
2019,06,17,08,03,4.80
2019,06,17,08,04,3.20
2019,06,17,08,05,3.20
2019,06,17,08,06,3.20
2019,06,17,08,07,1.60
2019,06,17,08,08,3.20
2019,06,17,08,09,3.20
2019,06,17,08,10,3.20
2019,06,17,08,11,4.80
2019,06,17,08,12,3.20
2019,06,17,08,13,3.20
2019,06,17,08,14,3.20
2019,06,17,08,15,3.20
2019,06,17,08,16,3.20
2019,06,17,08,17,3.20
2019,06,17,08,18,3.20
2019,06,17,08,19,3.20
2019,06,17,08,20,3.20
2019,06,17,08,21,3.20
2019,06,17,08,22,3.20
2019,06,17,08,23,1.60
2019,06,17,08,24,3.20
2019,06,17,08,25,3.20
2019,06,17,08,26,1.60
2019,06,17,08,27,3.20
2019,06,17,08,28,3.20
2019,06,17,08,29,3.20
2019,06,17,08,30,3.20
2019,06,17,08,31,3.20
2019,06,17,08,32,3.20
2019,06,17,08,33,4.80
2019,06,17,08,34,4.80
2019,06,17,08,35,3.20
2019,06,17,08,36,3.20
2019,06,17,08,37,3.20
2019,06,17,08,38,1.60
2019,06,17,08,39,1.60
2019,06,17,08,40,4.80
2019,06,17,08,41,4.80
2019,06,17,08,42,3.20
2019,06,17,08,43,3.20
2019,06,17,08,44,3.20
2019,06,17,08,45,3.20
2019,06,17,08,46,4.80
2019,06,17,08,47,3.20
2019,06,17,08,48,3.20
2019,06,17,08,49,3.20
2019,06,17,08,51,4.80
2019,06,17,08,52,3.20
2019,06,17,08,53,3.20
2019,06,17,08,54,1.60
2019,06,17,08,55,4.80
2019,06,17,08,56,4.80
2019,06,17,08,57,6.40
2019,06,17,08,58,3.20
2019,06,17,08,59,3.20
2019,06,17,09,00,3.20
2019,06,17,09,01,3.20
2019,06,17,09,02,4.80
2019,06,17,09,03,6.40
2019,06,17,09,04,4.80
2019,06,17,09,05,3.20
2019,06,17,09,06,3.20
2019,06,17,09,07,4.80
2019,06,17,09,08,4.80
2019,06,17,09,09,3.20
2019,06,17,09,10,3.20
2019,06,17,09,11,3.20
2019,06,17,09,12,3.20
2019,06,17,09,13,3.20
2019,06,17,09,14,4.80
2019,06,17,09,15,3.20
2019,06,17,09,16,4.80
2019,06,17,09,17,4.80
2019,06,17,09,18,4.80
2019,06,17,09,19,4.80
2019,06,17,09,20,3.20
2019,06,17,09,21,3.20
2019,06,17,09,22,3.20
2019,06,17,09,23,4.80
2019,06,17,09,24,6.40
2019,06,17,09,25,4.80
2019,06,17,09,26,4.80
2019,06,17,09,27,4.80
2019,06,17,09,28,4.80
2019,06,17,09,29,4.80
2019,06,17,09,30,4.80
2019,06,17,09,31,4.80
2019,06,17,09,32,4.80
2019,06,17,09,33,1.60
2019,06,17,09,34,6.40
2019,06,17,09,35,8.10
2019,06,17,09,36,6.40
2019,06,17,09,37,8.10
2019,06,17,09,38,4.80
2019,06,17,09,39,4.80
2019,06,17,09,40,8.10
2019,06,17,09,41,6.40
2019,06,17,09,42,4.80
2019,06,17,09,43,6.40
2019,06,17,09,44,3.20
2019,06,17,09,45,4.80
2019,06,17,09,46,3.20
2019,06,17,09,47,3.20
2019,06,17,09,48,3.20
2019,06,17,09,49,3.20
2019,06,17,09,50,4.80
2019,06,17,09,51,6.40
2019,06,17,09,52,8.10
2019,06,17,09,53,6.40
2019,06,17,09,54,4.80
2019,06,17,09,55,9.60
2019,06,17,09,56,6.40
2019,06,17,09,57,6.40
2019,06,17,09,58,8.10
2019,06,17,09,59,6.40
2019,06,17,10,00,8.10
2019,06,17,10,01,8.10
2019,06,17,10,02,3.20
2019,06,17,10,03,6.40
2019,06,17,10,04,8.10
2019,06,17,10,05,4.80
2019,06,17,10,06,8.10
2019,06,17,10,07,8.10
2019,06,17,10,08,9.60
2019,06,17,10,09,12.90
2019,06,17,10,10,11.30
2019,06,17,10,11,8.10
2019,06,17,10,12,8.10
2019,06,17,10,13,3.20
2019,06,17,10,14,6.40
2019,06,17,10,15,6.40
2019,06,17,10,16,4.80
2019,06,17,10,17,3.20
2019,06,17,10,18,6.40
2019,06,17,10,19,6.40
2019,06,17,10,20,8.10
2019,06,17,10,21,4.80
2019,06,17,10,22,9.60
2019,06,17,10,23,9.60
2019,06,17,10,24,8.10
2019,06,17,10,25,4.80
2019,06,17,10,26,4.80
2019,06,17,10,27,6.40
2019,06,17,10,28,8.10
2019,06,17,10,29,8.10
2019,06,17,10,30,8.10
2019,06,17,10,31,6.40
2019,06,17,10,32,8.10
2019,06,17,10,33,8.10
2019,06,17,10,34,3.20
2019,06,17,10,35,4.80
2019,06,17,10,36,6.40
2019,06,17,10,37,3.20
2019,06,17,10,38,6.40
2019,06,17,10,39,8.10
2019,06,17,10,40,6.40
2019,06,17,10,41,8.10
2019,06,17,10,42,8.10
2019,06,17,10,43,6.40
2019,06,17,10,44,3.20
2019,06,17,10,45,6.40
2019,06,17,10,46,9.60
2019,06,17,10,47,4.80
2019,06,17,10,48,6.40
2019,06,17,10,49,4.80
2019,06,17,10,50,6.40
2019,06,17,10,51,6.40
2019,06,17,10,52,6.40
2019,06,17,10,53,6.40
2019,06,17,10,54,9.60
2019,06,17,10,55,14.50
2019,06,17,10,56,4.80
2019,06,17,10,57,8.10
2019,06,17,10,58,4.80
2019,06,17,10,59,9.60
2019,06,17,11,00,11.30
2019,06,17,11,01,6.40
2019,06,17,11,02,6.40
2019,06,17,11,03,8.10
2019,06,17,11,04,6.40
2019,06,17,11,05,4.80
2019,06,17,11,06,8.10
2019,06,17,11,07,8.10
2019,06,17,11,08,4.80
2019,06,17,11,09,9.60
2019,06,17,11,10,11.30
2019,06,17,11,11,8.10
2019,06,17,11,12,4.80
2019,06,17,11,13,6.40
2019,06,17,11,14,4.80
2019,06,17,11,15,4.80
2019,06,17,11,16,3.20
2019,06,17,11,17,9.60
2019,06,17,11,18,11.30
2019,06,17,11,19,4.80
2019,06,17,11,20,4.80
2019,06,17,11,21,3.20
2019,06,17,11,22,6.40
2019,06,17,11,23,6.40
2019,06,17,11,24,8.10
2019,06,17,11,25,6.40
2019,06,17,11,26,8.10
2019,06,17,11,27,4.80
2019,06,17,11,28,8.10
2019,06,17,11,29,6.40
2019,06,17,11,30,9.60
2019,06,17,11,31,9.60
2019,06,17,11,32,4.80
2019,06,17,11,33,6.40
2019,06,17,11,34,8.10
2019,06,17,11,35,8.10
2019,06,17,11,36,8.10
2019,06,17,11,37,9.60
2019,06,17,11,38,11.30
2019,06,17,11,39,6.40
2019,06,17,11,40,4.80
2019,06,17,11,41,8.10
2019,06,17,11,42,8.10
2019,06,17,11,43,8.10
2019,06,17,11,44,8.10
2019,06,17,11,45,3.20
2019,06,17,11,46,9.60
2019,06,17,11,47,6.40
2019,06,17,11,48,8.10
2019,06,17,11,49,8.10
2019,06,17,11,50,6.40
2019,06,17,11,51,6.40
2019,06,17,11,52,6.40
2019,06,17,11,53,9.60
2019,06,17,11,54,9.60
2019,06,17,11,55,8.10
2019,06,17,11,56,6.40
2019,06,17,11,57,9.60
2019,06,17,11,58,6.40
2019,06,17,11,59,4.80
2019,06,17,12,00,6.40
2019,06,17,12,01,4.80
2019,06,17,12,02,3.20
2019,06,17,12,03,8.10
2019,06,17,12,04,9.60
2019,06,17,12,05,8.10
2019,06,17,12,06,11.30
2019,06,17,12,07,8.10
2019,06,17,12,08,6.40
2019,06,17,12,09,6.40
2019,06,17,12,10,6.40
2019,06,17,12,11,6.40
2019,06,17,12,12,4.80
2019,06,17,12,13,8.10
2019,06,17,12,14,9.60
2019,06,17,12,15,8.10
2019,06,17,12,16,6.40
2019,06,17,12,17,9.60
2019,06,17,12,18,6.40
2019,06,17,12,19,11.30
2019,06,17,12,20,3.20
2019,06,17,12,21,3.20
2019,06,17,12,22,9.60
2019,06,17,12,23,4.80
2019,06,17,12,24,4.80
2019,06,17,12,25,4.80
2019,06,17,12,26,4.80
2019,06,17,12,27,6.40
2019,06,17,12,28,12.90
2019,06,17,12,29,6.40
2019,06,17,12,30,11.30
2019,06,17,12,31,11.30
2019,06,17,12,32,9.60
2019,06,17,12,33,8.10
2019,06,17,12,34,8.10
2019,06,17,12,35,6.40
2019,06,17,12,36,6.40
2019,06,17,12,37,3.20
2019,06,17,12,38,8.10
2019,06,17,12,39,4.80
2019,06,17,12,40,4.80
2019,06,17,12,41,3.20
2019,06,17,12,42,3.20
2019,06,17,12,43,6.40
2019,06,17,12,44,11.30
2019,06,17,12,45,8.10
2019,06,17,12,46,8.10
2019,06,17,12,47,12.90
2019,06,17,12,48,8.10
2019,06,17,12,49,6.40
2019,06,17,12,50,8.10
2019,06,17,12,51,12.90
2019,06,17,12,52,12.90
2019,06,17,12,53,9.60
2019,06,17,12,54,8.10
2019,06,17,12,55,12.90
2019,06,17,12,56,8.10
2019,06,17,12,57,6.40
2019,06,17,12,58,6.40
2019,06,17,12,59,11.30
2019,06,17,13,00,9.60
2019,06,17,13,01,12.90
2019,06,17,13,02,8.10
2019,06,17,13,03,11.30
2019,06,17,13,04,8.10
2019,06,17,13,05,6.40
2019,06,17,13,06,4.80
2019,06,17,13,07,4.80
2019,06,17,13,08,8.10
2019,06,17,13,09,8.10
2019,06,17,13,10,6.40
2019,06,17,13,11,12.90
2019,06,17,13,12,11.30
2019,06,17,13,13,9.60
2019,06,17,13,14,9.60
2019,06,17,13,15,8.10
2019,06,17,13,16,4.80
2019,06,17,13,17,8.10
2019,06,17,13,18,6.40
2019,06,17,13,19,6.40
2019,06,17,13,20,6.40
2019,06,17,13,21,6.40
2019,06,17,13,22,6.40
2019,06,17,13,23,6.40
2019,06,17,13,24,6.40
2019,06,17,13,25,9.60
2019,06,17,13,26,9.60
2019,06,17,13,27,6.40
2019,06,17,13,28,6.40
2019,06,17,13,29,8.10
2019,06,17,13,30,6.40
2019,06,17,13,31,9.60
2019,06,17,13,32,8.10
2019,06,17,13,33,8.10
2019,06,17,13,34,6.40
2019,06,17,13,35,4.80
2019,06,17,13,36,4.80
2019,06,17,13,37,9.60
2019,06,17,13,38,9.60
2019,06,17,13,39,6.40
2019,06,17,13,40,8.10
2019,06,17,13,41,8.10
2019,06,17,13,42,8.10
2019,06,17,13,43,9.60
2019,06,17,13,44,9.60
2019,06,17,13,45,4.80
2019,06,17,13,46,3.20
2019,06,17,13,47,4.80
2019,06,17,13,48,4.80
2019,06,17,13,49,4.80
2019,06,17,13,50,4.80
2019,06,17,13,51,3.20
2019,06,17,13,52,12.90
2019,06,17,13,53,11.30
2019,06,17,13,54,11.30
2019,06,17,13,55,8.10
2019,06,17,13,56,6.40
2019,06,17,13,57,6.40
2019,06,17,13,58,8.10
2019,06,17,13,59,6.40
2019,06,17,14,00,6.40
2019,06,17,14,01,6.40
2019,06,17,14,02,8.10
2019,06,17,14,03,8.10
2019,06,17,14,04,6.40
2019,06,17,14,05,9.60
2019,06,17,14,06,6.40
2019,06,17,14,07,9.60
2019,06,17,14,08,4.80
2019,06,17,14,09,6.40
2019,06,17,14,10,3.20
2019,06,17,14,11,4.80
2019,06,17,14,12,6.40
2019,06,17,14,13,9.60
2019,06,17,14,14,6.40
2019,06,17,14,15,4.80
2019,06,17,14,16,6.40
2019,06,17,14,17,6.40
2019,06,17,14,18,4.80
2019,06,17,14,19,8.10
2019,06,17,14,20,11.30
2019,06,17,14,21,11.30
2019,06,17,14,22,6.40
2019,06,17,14,23,8.10
2019,06,17,14,24,3.20
2019,06,17,14,25,4.80
2019,06,17,14,26,3.20
2019,06,17,14,27,3.20
2019,06,17,14,28,6.40
2019,06,17,14,29,6.40
2019,06,17,14,30,4.80
2019,06,17,14,31,6.40
2019,06,17,14,32,6.40
2019,06,17,14,33,6.40
2019,06,17,14,34,6.40
2019,06,17,14,35,4.80
2019,06,17,14,36,6.40
2019,06,17,14,37,4.80
2019,06,17,14,38,8.10
2019,06,17,14,39,11.30
2019,06,17,14,40,14.50
2019,06,17,14,41,6.40
2019,06,17,14,42,9.60
2019,06,17,14,43,8.10
2019,06,17,14,44,8.10
2019,06,17,14,45,6.40
2019,06,17,14,46,8.10
2019,06,17,14,47,11.30
2019,06,17,14,48,8.10
2019,06,17,14,49,8.10
2019,06,17,14,50,4.80
2019,06,17,14,51,9.60
2019,06,17,14,52,4.80
2019,06,17,14,53,4.80
2019,06,17,14,54,6.40
2019,06,17,14,55,8.10
2019,06,17,14,56,9.60
2019,06,17,14,57,6.40
2019,06,17,14,58,9.60
2019,06,17,14,59,11.30
2019,06,17,15,00,11.30
2019,06,17,15,01,8.10
2019,06,17,15,02,8.10
2019,06,17,15,03,6.40
2019,06,17,15,04,9.60
2019,06,17,15,05,8.10
2019,06,17,15,06,11.30
2019,06,17,15,07,8.10
2019,06,17,15,08,6.40
2019,06,17,15,09,8.10
2019,06,17,15,10,4.80
2019,06,17,15,11,4.80
2019,06,17,15,12,6.40
2019,06,17,15,13,4.80
2019,06,17,15,14,4.80
2019,06,17,15,15,4.80
2019,06,17,15,16,4.80
2019,06,17,15,17,6.40
2019,06,17,15,18,6.40
2019,06,17,15,19,8.10
2019,06,17,15,20,4.80
2019,06,17,15,21,6.40
2019,06,17,15,22,8.10
2019,06,17,15,23,8.10
2019,06,17,15,24,4.80
2019,06,17,15,25,3.20
2019,06,17,15,26,4.80
2019,06,17,15,27,6.40
2019,06,17,15,28,4.80
2019,06,17,15,29,8.10
2019,06,17,15,30,9.60
2019,06,17,15,31,8.10
2019,06,17,15,32,6.40
2019,06,17,15,33,8.10
2019,06,17,15,34,4.80
2019,06,17,15,35,8.10
2019,06,17,15,36,6.40
2019,06,17,15,37,4.80
2019,06,17,15,38,4.80
2019,06,17,15,39,3.20
2019,06,17,15,40,4.80
2019,06,17,15,41,4.80
2019,06,17,15,42,4.80
2019,06,17,15,43,6.40
2019,06,17,15,44,4.80
2019,06,17,15,45,4.80
2019,06,17,15,46,6.40
2019,06,17,15,47,4.80
2019,06,17,15,48,4.80
2019,06,17,15,49,6.40
2019,06,17,15,50,8.10
2019,06,17,15,51,4.80
2019,06,17,15,52,6.40
2019,06,17,15,53,6.40
2019,06,17,15,54,6.40
2019,06,17,15,55,9.60
2019,06,17,15,56,6.40
2019,06,17,15,57,12.90
2019,06,17,15,58,11.30
2019,06,17,15,59,11.30
2019,06,17,16,00,8.10
2019,06,17,16,01,6.40
2019,06,17,16,02,6.40
2019,06,17,16,03,6.40
2019,06,17,16,04,4.80
2019,06,17,16,05,4.80
2019,06,17,16,06,6.40
2019,06,17,16,07,8.10
2019,06,17,16,08,6.40
2019,06,17,16,09,6.40
2019,06,17,16,10,4.80
2019,06,17,16,11,8.10
2019,06,17,16,12,8.10
2019,06,17,16,13,8.10
2019,06,17,16,14,11.30
2019,06,17,16,15,6.40
2019,06,17,16,16,8.10
2019,06,17,16,17,8.10
2019,06,17,16,18,6.40
2019,06,17,16,19,4.80
2019,06,17,16,20,4.80
2019,06,17,16,21,6.40
2019,06,17,16,22,6.40
2019,06,17,16,23,4.80
2019,06,17,16,24,4.80
2019,06,17,16,25,3.20
2019,06,17,16,26,4.80
2019,06,17,16,27,6.40
2019,06,17,16,28,4.80
2019,06,17,16,29,3.20
2019,06,17,16,30,3.20
2019,06,17,16,31,4.80
2019,06,17,16,32,4.80
2019,06,17,16,33,4.80
2019,06,17,16,34,4.80
2019,06,17,16,35,3.20
2019,06,17,16,36,4.80
2019,06,17,16,37,4.80
2019,06,17,16,38,3.20
2019,06,17,16,39,3.20
2019,06,17,16,40,3.20
2019,06,17,16,41,3.20
2019,06,17,16,42,3.20
2019,06,17,16,43,4.80
2019,06,17,16,44,4.80
2019,06,17,16,45,4.80
2019,06,17,16,46,4.80
2019,06,17,16,47,3.20
2019,06,17,16,48,3.20
2019,06,17,16,49,3.20
2019,06,17,16,50,1.60
2019,06,17,16,51,3.20
2019,06,17,16,52,4.80
2019,06,17,16,53,3.20
2019,06,17,16,54,3.20
2019,06,17,16,55,3.20
2019,06,17,16,56,4.80
2019,06,17,16,57,4.80
2019,06,17,16,58,4.80
2019,06,17,16,59,3.20
2019,06,17,17,00,3.20
2019,06,17,17,01,3.20
2019,06,17,17,02,3.20
2019,06,17,17,03,3.20
2019,06,17,17,04,3.20
2019,06,17,17,05,3.20
2019,06,17,17,06,3.20
2019,06,17,17,07,3.20
2019,06,17,17,08,1.60
2019,06,17,17,09,3.20
2019,06,17,17,10,3.20
2019,06,17,17,11,1.60
2019,06,17,17,12,3.20
2019,06,17,17,13,3.20
2019,06,17,17,14,4.80
2019,06,17,17,15,3.20
2019,06,17,17,16,3.20
2019,06,17,17,17,4.80
2019,06,17,17,18,6.40
2019,06,17,17,19,6.40
2019,06,17,17,20,6.40
2019,06,17,17,21,4.80
2019,06,17,17,22,4.80
2019,06,17,17,23,3.20
2019,06,17,17,24,3.20
2019,06,17,17,25,4.80
2019,06,17,17,26,4.80
2019,06,17,17,27,3.20
2019,06,17,17,28,4.80
2019,06,17,17,29,4.80
2019,06,17,17,30,3.20
2019,06,17,17,31,3.20
2019,06,17,17,32,4.80
2019,06,17,17,33,3.20
2019,06,17,17,34,3.20
2019,06,17,17,35,3.20
2019,06,17,17,36,6.40
2019,06,17,17,37,6.40
2019,06,17,17,38,6.40
2019,06,17,17,39,4.80
2019,06,17,17,40,4.80
2019,06,17,17,41,6.40
2019,06,17,17,42,8.10
2019,06,17,17,43,4.80
2019,06,17,17,44,4.80
2019,06,17,17,45,4.80
2019,06,17,17,46,3.20
2019,06,17,17,47,3.20
2019,06,17,17,48,3.20
2019,06,17,17,49,4.80
2019,06,17,17,50,6.40
2019,06,17,17,51,6.40
2019,06,17,17,52,4.80
2019,06,17,17,53,4.80
2019,06,17,17,54,4.80
2019,06,17,17,55,3.20
2019,06,17,17,56,3.20
2019,06,17,17,57,4.80
2019,06,17,17,58,4.80
2019,06,17,17,59,4.80
2019,06,17,18,00,6.40
2019,06,17,18,01,6.40
2019,06,17,18,02,4.80
2019,06,17,18,03,3.20
2019,06,17,18,04,1.60
2019,06,17,18,05,3.20
2019,06,17,18,06,3.20
2019,06,17,18,07,3.20
2019,06,17,18,08,3.20
2019,06,17,18,09,3.20
2019,06,17,18,10,3.20
2019,06,17,18,11,3.20
2019,06,17,18,12,3.20
2019,06,17,18,13,3.20
2019,06,17,18,14,3.20
2019,06,17,18,15,1.60
2019,06,17,18,16,3.20
2019,06,17,18,17,3.20
2019,06,17,18,18,1.60
2019,06,17,18,19,1.60
2019,06,17,18,20,1.60
2019,06,17,18,21,1.60
2019,06,17,18,22,3.20
2019,06,17,18,23,3.20
2019,06,17,18,24,3.20
2019,06,17,18,25,3.20
2019,06,17,18,26,3.20
2019,06,17,18,27,3.20
2019,06,17,18,28,3.20
2019,06,17,18,29,1.60
2019,06,17,18,30,3.20
2019,06,17,18,31,3.20
2019,06,17,18,32,4.80
2019,06,17,18,33,4.80
2019,06,17,18,34,4.80
2019,06,17,18,35,4.80
2019,06,17,18,36,6.40
2019,06,17,18,37,6.40
2019,06,17,18,38,4.80
2019,06,17,18,39,3.20
2019,06,17,18,40,3.20
2019,06,17,18,41,1.60
2019,06,17,18,42,3.20
2019,06,17,18,43,1.60
2019,06,17,18,44,1.60
2019,06,17,18,45,3.20
2019,06,17,18,46,3.20
2019,06,17,18,47,1.60
2019,06,17,18,48,3.20
2019,06,17,18,49,4.80
2019,06,17,18,50,6.40
2019,06,17,18,51,4.80
2019,06,17,18,52,4.80
2019,06,17,18,53,4.80
2019,06,17,18,54,9.60
2019,06,17,18,55,9.60
2019,06,17,18,56,4.80
2019,06,17,18,57,4.80
2019,06,17,18,58,3.20
2019,06,17,18,59,3.20
2019,06,17,19,00,4.80
2019,06,17,19,01,3.20
2019,06,17,19,02,3.20
2019,06,17,19,03,3.20
2019,06,17,19,04,3.20
2019,06,17,19,05,4.80
2019,06,17,19,06,1.60
2019,06,17,19,07,4.80
2019,06,17,19,08,8.10
2019,06,17,19,09,4.80
2019,06,17,19,10,3.20
2019,06,17,19,11,9.60
2019,06,17,19,12,8.10
2019,06,17,19,13,4.80
2019,06,17,19,14,3.20
2019,06,17,19,15,4.80
2019,06,17,19,16,3.20
2019,06,17,19,17,4.80
2019,06,17,19,18,3.20
2019,06,17,19,19,6.40
2019,06,17,19,20,4.80
2019,06,17,19,21,3.20
2019,06,17,19,22,3.20
2019,06,17,19,23,3.20
2019,06,17,19,24,3.20
2019,06,17,19,25,3.20
2019,06,17,19,26,9.60
2019,06,17,19,27,9.60
2019,06,17,19,28,9.60
2019,06,17,19,29,6.40
2019,06,17,19,30,4.80
2019,06,17,19,31,3.20
2019,06,17,19,32,3.20
2019,06,17,19,33,1.60
2019,06,17,19,34,3.20
2019,06,17,19,35,1.60
2019,06,17,19,36,3.20
2019,06,17,19,37,3.20
2019,06,17,19,38,3.20
2019,06,17,19,39,3.20
2019,06,17,19,40,4.80
2019,06,17,19,41,4.80
2019,06,17,19,42,1.60
2019,06,17,19,43,1.60
2019,06,17,19,44,4.80
2019,06,17,19,45,4.80
2019,06,17,19,46,3.20
2019,06,17,19,47,4.80
2019,06,17,19,48,3.20
2019,06,17,19,49,3.20
2019,06,17,19,50,1.60
2019,06,17,19,51,3.20
2019,06,17,19,52,4.80
2019,06,17,19,53,1.60
2019,06,17,19,54,4.80
2019,06,17,19,55,3.20
2019,06,17,19,56,3.20
2019,06,17,19,57,3.20
2019,06,17,19,58,3.20
2019,06,17,19,59,3.20
2019,06,17,20,00,4.80
2019,06,17,20,01,4.80
2019,06,17,20,02,4.80
2019,06,17,20,03,6.40
2019,06,17,20,04,4.80
2019,06,17,20,05,3.20
2019,06,17,20,06,1.60
2019,06,17,20,07,3.20
2019,06,17,20,08,3.20
2019,06,17,20,09,3.20
2019,06,17,20,10,6.40
2019,06,17,20,11,9.60
2019,06,17,20,12,9.60
2019,06,17,20,13,4.80
2019,06,17,20,14,3.20
2019,06,17,20,15,4.80
2019,06,17,20,16,1.60
2019,06,17,20,17,3.20
2019,06,17,20,18,3.20
2019,06,17,20,19,3.20
2019,06,17,20,20,4.80
2019,06,17,20,21,3.20
2019,06,17,20,22,1.60
2019,06,17,20,23,3.20
2019,06,17,20,24,4.80
2019,06,17,20,25,3.20
2019,06,17,20,26,3.20
2019,06,17,20,27,1.60
2019,06,17,20,28,3.20
2019,06,17,20,29,1.60
2019,06,17,20,30,1.60
2019,06,17,20,31,1.60
2019,06,17,20,32,3.20
2019,06,17,20,34,3.20
2019,06,17,20,35,3.20
2019,06,17,20,36,1.60
2019,06,17,20,37,3.20
2019,06,17,20,38,3.20
2019,06,17,20,39,3.20
2019,06,17,20,40,3.20
2019,06,17,20,41,3.20
2019,06,17,20,42,3.20
2019,06,17,20,43,4.80
2019,06,17,20,44,3.20
2019,06,17,20,45,3.20
2019,06,17,20,46,3.20
2019,06,17,20,47,3.20
2019,06,17,20,48,3.20
2019,06,17,20,49,1.60
2019,06,17,20,50,3.20
2019,06,17,20,51,1.60
2019,06,17,20,52,4.80
2019,06,17,20,53,3.20
2019,06,17,20,54,4.80
2019,06,17,20,55,3.20
2019,06,17,20,56,3.20
2019,06,17,20,57,1.60
2019,06,17,20,58,3.20
2019,06,17,20,59,1.60
2019,06,17,21,00,4.80
2019,06,17,21,01,3.20
2019,06,17,21,02,1.60
2019,06,17,21,03,1.60
2019,06,17,21,04,1.60
2019,06,17,21,05,1.60
2019,06,17,21,06,1.60
2019,06,17,21,07,1.60
2019,06,17,21,08,3.20
2019,06,17,21,09,6.40
2019,06,17,21,10,4.80
2019,06,17,21,11,3.20
2019,06,17,21,12,3.20
2019,06,17,21,13,3.20
2019,06,17,21,14,3.20
2019,06,17,21,15,4.80
2019,06,17,21,16,3.20
2019,06,17,21,17,3.20
2019,06,17,21,18,4.80
2019,06,17,21,19,6.40
2019,06,17,21,20,4.80
2019,06,17,21,21,3.20
2019,06,17,21,22,3.20
2019,06,17,21,23,4.80
2019,06,17,21,24,4.80
2019,06,17,21,25,3.20
2019,06,17,21,26,4.80
2019,06,17,21,27,6.40
2019,06,17,21,28,3.20
2019,06,17,21,29,4.80
2019,06,17,21,30,6.40
2019,06,17,21,31,8.10
2019,06,17,21,32,4.80
2019,06,17,21,33,8.10
2019,06,17,21,34,4.80
2019,06,17,21,35,3.20
2019,06,17,21,36,3.20
2019,06,17,21,37,9.60